EHI
0 0 0 0 0 0 0 0 0 0 0 0 0 0 0 0 0 1 1 1 3 3 4 9 17 21 22 19 13 11 11 8 3 1 1 2 1 0 0 0 0 0 0 0 0 0 0 0 0
0 0 0 0 0 0 0 0 0 0 0 0 0 0 0 0 1 2 2 2 3 4 4 8 15 19 20 17 12 8 8 6 4 1 1 2 2 1 1 0 0 0 0 0 0 0 0 0 0
0 0 0 0 0 0 0 0 0 0 0 0 0 0 0 0 1 3 3 3 3 5 5 9 14 17 18 15 10 6 5 6 5 3 1 1 2 2 2 1 0 0 0 0 0 0 0 0 0
0 0 0 0 0 0 0 0 0 0 0 0 0 0 0 0 2 3 5 6 6 7 7 10 15 19 17 14 10 6 4 5 5 3 1 0 1 1 2 2 1 1 0 0 0 0 0 0 0
0 0 0 0 0 0 0 0 0 0 0 0 0 0 0 0 1 3 6 8 9 8 7 10 16 19 17 14 10 6 4 4 4 4 3 2 0 0 1 1 1 1 1 1 0 0 0 0 0
0 0 0 0 0 0 0 0 0 0 0 0 0 0 1 1 0 1 4 6 6 6 7 9 13 15 15 12 8 6 4 3 4 4 4 3 1 0 1 1 1 2 2 1 0 0 0 0 0
0 0 0 0 0 0 0 0 0 0 0 0 0 0 1 1 1 1 2 3 4 4 5 7 8 9 10 8 6 5 5 4 4 4 3 2 0 0 1 0 1 2 2 1 0 0 0 0 0
0 0 0 0 0 0 0 0 0 0 0 0 0 0 1 1 1 2 3 3 3 4 4 5 6 7 7 6 4 4 4 4 3 2 1 0 0 0 0 0 0 1 2 1 0 0 0 0 0
0 0 0 0 0 0 0 0 0 0 0 0 0 0 1 1 2 3 3 3 3 3 4 5 6 6 5 4 2 1 1 2 1 1 0 0 0 0 0 0 0 1 1 1 0 0 0 0 0
0 0 0 0 0 0 0 0 0 0 0 0 0 1 2 3 3 3 3 3 1 1 3 4 4 4 2 1 1 0 0 0 0 0 0 0 0 0 0 0 0 0 0 0 0 0 0 0 0
0 0 0 0 0 0 0 0 0 0 0 0 0 2 3 3 3 3 3 3 1 1 2 3 2 1 0 0 0 0 0 0 0 0 0 0 0 0 0 0 0 0 0 0 0 0 0 0 0
0 0 0 0 0 0 0 0 0 0 0 0 0 1 2 3 3 3 2 2 2 1 1 2 1 0 0 0 0 0 0 0 0 0 0 0 0 0 0 0 0 0 0 0 0 0 0 0 0
0 0 0 0 0 0 0 0 0 0 0 0 0 0 1 2 2 1 1 1 2 1 0 0 0 0 0 0 0 0 0 0 0 0 0 0 0 0 0 0 0 0 0 0 0 0 0 0 0
0 0 0 0 0 0 0 0 0 0 0 0 0 0 0 1 1 0 0 1 2 2 1 0 0 0 0 0 0 0 0 0 0 0 0 0 0 0 0 0 0 0 0 0 0 0 0 0 0
0 0 0 0 0 0 0 0 0 0 0 0 0 0 0 0 0 0 0 1 2 2 1 0 0 0 0 0 0 0 0 0 0 0 0 0 0 0 0 0 0 0 0 0 0 0 0 0 0
0 0 0 0 0 0 0 0 0 0 0 0 0 0 0 0 0 0 0 0 1 2 2 1 0 0 1 1 1 0 0 0 0 0 0 0 0 0 0 0 0 0 0 0 0 0 0 0 0
0 0 0 0 0 0 0 0 0 0 0 0 0 0 0 0 0 0 0 0 0 1 1 1 0 0 1 2 2 1 0 0 0 0 0 0 0 0 0 0 0 0 0 0 0 0 0 0 0
0 0 0 0 0 0 0 0 0 0 0 0 0 0 0 0 0 0 0 0 0 0 0 0 0 0 1 2 2 1 0 0 0 0 0 0 0 0 0 0 0 0 0 0 0 0 0 0 0
0 0 0 0 0 0 0 0 0 0 0 0 0 0 0 0 0 0 0 0 0 0 0 0 0 0 0 1 1 0 0 0 0 0 0 0 0 0 0 0 0 0 0 0 0 0 0 0 0
0 0 0 0 0 0 0 0 0 0 0 0 0 0 0 0 0 0 0 0 0 0 0 0 0 0 0 0 1 0 0 0 0 0 0 0 0 0 0 0 0 0 0 0 0 0 0 0 0
0 0 0 0 0 0 0 0 0 0 0 0 0 0 0 0 0 0 0 0 0 0 0 0 0 0 0 0 0 0 0 0 0 0 0 0 0 0 0 0 0 0 0 0 0 0 0 0 0
0 0 0 0 0 0 0 0 0 0 0 0 0 0 0 0 0 0 0 0 0 0 0 0 0 0 0 0 0 0 0 0 0 0 0 0 0 0 0 0 0 0 0 0 0 0 0 0 0
0 0 0 0 0 0 0 0 0 0 0 0 0 0 0 0 0 0 0 0 0 0 0 0 0 0 0 0 0 0 0 0 0 0 0 0 0 0 0 0 0 0 0 0 0 0 0 0 0
0 0 0 0 0 0 0 0 0 0 0 0 0 0 0 0 0 0 0 0 0 0 0 0 0 0 0 0 0 0 0 0 0 0 0 0 0 0 0 0 0 0 0 0 0 0 0 0 0
0 0 0 0 0 0 0 0 0 0 0 0 0 0 0 0 0 0 0 0 0 0 0 0 0 0 0 0 0 0 0 0 0 0 0 0 0 0 0 0 0 0 0 0 0 0 0 0 0
0 0 0 0 0 0 0 0 0 0 0 0 0 0 0 0 0 0 0 0 0 0 0 0 0 0 0 0 0 0 0 0 0 0 0 0 0 0 0 0 0 0 0 0 0 0 0 0 0
0 0 0 0 0 0 0 0 0 0 0 0 0 0 0 0 0 0 0 0 0 0 0 0 0 0 0 0 0 0 0 0 0 0 0 0 0 0 0 0 0 0 0 0 0 0 0 0 0
0 0 0 0 0 0 0 0 0 0 0 0 0 0 0 0 0 0 0 0 0 0 0 0 0 0 0 0 0 0 0 0 0 0 0 0 0 0 0 0 0 0 0 0 0 0 0 0 0
0 0 0 0 0 0 0 0 0 0 0 0 0 0 0 0 0 0 0 0 0 0 0 0 0 0 0 0 0 0 0 0 0 0 0 0 0 0 0 0 0 0 0 0 0 0 0 0 0
0 0 0 0 0 0 0 0 0 0 0 0 0 0 0 0 0 0 0 0 0 0 0 0 0 0 0 0 0 0 0 0 0 0 0 0 0 0 0 0 0 0 0 0 0 0 0 0 0
Wind_Speed
6 3 3 5 7 5 1 4 3 1 1 1 1 5 6 4 3 4 2 4 6 6 5 6 7 7 8 8 7 7 7 7 6 6 6 7 7 7 7 7 7 8 8 8 8 9 9 10 10
2 2 5 6 6 2 4 4 3 4 3 2 2 4 5 3 2 5 2 4 7 7 5 5 7 8 8 7 7 7 7 7 6 5 6 6 6 6 6 6 7 7 8 8 8 8 9 9 10
3 2 5 5 4 5 5 4 5 3 1 2 2 3 4 4 3 3 3 6 6 6 5 5 8 7 7 7 7 7 6 6 5 5 5 5 5 6 6 6 6 7 7 7 8 8 8 8 9
3 5 5 4 3 4 5 3 3 2 1 2 4 3 2 1 4 4 5 7 7 5 4 5 7 7 7 6 6 6 6 6 5 5 4 4 4 5 5 5 5 6 6 7 8 8 8 8 7
4 5 4 1 3 3 3 4 3 2 2 1 3 3 1 2 3 6 6 7 7 5 3 4 6 7 6 6 6 5 5 5 5 5 4 4 4 4 4 5 5 6 6 7 7 7 7 7 7
5 5 4 3 4 3 3 3 3 2 2 1 4 4 1 0 4 5 6 6 6 6 4 4 6 6 6 5 5 5 5 4 5 4 4 3 3 3 4 4 5 5 6 6 7 7 7 7 7
5 4 3 4 3 3 3 2 3 4 2 3 5 5 2 1 2 4 6 6 5 5 4 2 3 4 5 4 4 4 4 4 4 4 3 3 3 3 3 3 4 5 6 6 6 6 6 6 6
5 4 2 3 3 4 2 1 2 5 3 2 4 7 5 5 3 5 5 5 4 4 3 2 2 2 3 3 3 3 3 3 3 3 3 3 3 2 2 2 3 5 6 6 6 6 6 6 5
4 4 3 5 5 4 1 1 1 1 3 1 1 4 5 7 6 6 4 3 3 3 2 2 2 2 2 2 3 3 3 3 3 2 3 3 1 1 1 1 2 4 5 5 5 5 5 5 5
4 3 6 4 3 3 1 1 1 1 1 1 2 2 4 7 7 7 5 4 3 3 3 2 2 2 2 2 2 2 1 2 2 2 2 1 1 0 1 1 2 3 4 4 4 4 5 3 2
4 6 3 3 2 2 1 1 1 4 3 5 5 4 5 5 5 6 5 5 4 4 3 3 2 2 2 2 2 1 1 1 1 2 2 1 1 1 0 1 1 2 2 2 2 2 2 2 2
3 3 4 3 2 1 2 2 2 4 6 5 7 8 7 7 7 7 6 5 4 3 3 3 3 2 2 2 2 2 2 1 1 2 2 2 1 1 1 1 1 1 1 2 1 1 2 2 2
3 3 3 4 3 2 2 4 3 6 6 3 4 6 7 8 7 6 6 5 5 4 4 3 3 3 3 3 2 2 2 2 2 2 2 3 2 2 1 1 1 1 1 2 2 2 2 2 2
3 3 3 3 4 3 4 5 3 8 5 4 5 6 6 7 7 5 4 4 4 5 4 4 3 4 4 3 2 2 2 2 2 2 2 3 3 2 2 2 2 1 2 2 2 3 3 2 2
1 2 5 4 4 4 2 6 8 8 4 4 5 6 6 6 6 6 7 6 5 5 5 4 4 4 4 4 3 2 2 2 2 2 2 3 3 3 2 2 2 2 2 2 2 2 2 2 2
1 1 4 5 4 3 4 10 7 5 5 6 6 6 6 6 6 6 6 5 5 5 5 4 4 4 4 3 3 2 2 2 2 2 2 2 3 3 3 2 2 2 2 2 2 2 2 2 2
1 3 5 5 4 3 6 9 7 4 6 7 7 6 6 5 5 5 5 5 5 6 5 4 4 4 3 3 2 2 2 2 2 2 2 2 3 3 3 2 2 2 2 2 3 2 3 3 2
4 4 4 6 4 4 6 10 8 5 6 7 6 6 5 6 7 5 5 5 5 5 4 4 4 3 3 2 2 1 1 1 1 2 2 2 2 3 3 2 2 3 2 2 2 3 2 2 3
4 4 6 6 3 3 8 11 10 7 6 6 6 6 6 7 5 4 4 4 4 3 3 4 4 3 3 2 2 2 2 1 1 1 2 3 3 3 3 3 3 3 3 3 4 3 3 2 2
5 6 6 5 3 4 7 10 8 7 7 7 7 7 7 5 3 3 3 3 3 3 3 4 4 4 3 3 2 2 2 1 1 1 1 2 3 3 3 4 3 3 3 4 4 4 2 1 2
7 7 7 6 5 4 4 8 6 5 4 4 5 6 6 7 7 5 4 4 3 3 3 3 4 4 3 3 2 1 1 1 0 1 1 2 2 3 3 4 4 4 4 4 5 5 4 3 2
8 6 5 5 3 5 1 6 7 4 3 4 4 4 5 5 5 5 5 4 4 4 3 3 3 3 3 3 3 3 2 2 2 2 2 1 2 2 3 4 4 4 3 4 5 4 3 5 4
6 4 5 5 4 5 3 4 8 2 4 5 4 4 4 5 6 6 6 5 3 3 3 2 2 2 2 2 3 3 2 2 1 1 2 1 1 2 2 3 3 4 3 4 4 4 4 4 4
2 2 2 0 1 6 7 6 7 4 5 3 3 3 4 4 4 4 4 3 3 2 2 2 3 2 2 2 2 3 3 2 2 2 2 1 1 1 2 2 3 3 3 4 4 4 5 4 4
2 2 1 2 2 7 3 5 8 5 3 3 4 3 3 3 4 4 4 4 3 3 2 2 3 2 2 2 2 2 3 3 4 3 3 2 1 1 2 2 3 3 3 4 4 4 4 5 5
3 4 4 5 5 5 2 6 5 3 2 1 1 1 1 2 3 4 5 5 4 3 3 3 3 2 2 2 2 2 2 2 2 2 2 3 2 2 3 3 3 3 4 3 3 3 4 4 4
2 3 3 2 2 3 4 3 5 4 5 4 3 3 1 1 1 2 3 3 4 3 3 3 3 2 2 2 2 1 2 2 2 2 2 2 2 2 3 3 3 3 3 3 3 3 3 3 4
2 1 1 2 3 5 3 2 3 3 3 3 3 2 2 1 1 0 1 2 2 2 2 2 2 2 2 2 2 1 2 2 2 2 2 2 2 2 2 2 3 3 2 3 3 2 3 4 4
1 1 1 2 2 3 3 3 1 1 1 1 2 2 2 1 0 0 0 1 1 1 1 1 1 1 1 1 1 1 2 2 2 2 2 3 2 2 2 2 3 3 3 3 3 3 4 5 4
2 2 1 2 4 3 2 4 2 2 3 3 3 4 3 2 1 0 0 1 1 1 0 1 1 1 1 1 1 2 2 1 1 2 2 2 2 2 3 3 3 3 3 3 4 4 4 5 5
Wind_Direction
345 9 78 61 58 57 218 245 224 230 194 198 112 111 118 113 140 160 166 142 136 142 148 139 129 128 125 122 119 114 113 112 111 110 110 113 118 123 125 122 122 123 120 118 119 120 119 117 117
359 42 59 61 89 118 255 243 215 222 199 154 92 96 89 78 82 110 119 140 135 139 143 141 132 130 125 124 123 120 117 114 112 114 112 113 119 124 126 124 124 124 122 121 123 124 123 122 121
355 65 82 78 124 181 213 224 208 214 205 138 87 67 102 124 125 139 160 145 128 130 138 144 133 132 128 125 127 124 121 118 113 113 114 115 119 125 125 125 123 125 123 124 125 128 126 124 123
60 50 59 83 198 223 206 214 189 151 70 79 110 74 66 82 151 154 140 133 126 127 132 143 136 134 131 129 127 128 126 126 121 113 115 118 123 128 126 126 125 126 127 128 127 131 132 128 125
63 78 77 74 235 247 230 227 187 158 167 127 117 113 76 354 113 123 124 126 129 129 128 139 134 132 132 133 129 130 131 132 130 124 122 126 127 133 133 126 131 132 133 135 133 132 134 136 132
60 73 107 206 232 244 250 225 169 161 175 132 118 121 177 52 121 128 123 123 129 135 130 136 135 132 133 133 131 130 136 136 136 132 128 123 126 130 132 136 140 140 139 137 136 137 139 139 137
108 109 169 197 213 241 240 194 160 167 171 191 145 128 168 219 169 132 118 114 112 119 124 134 144 139 135 133 136 136 136 132 131 128 121 107 103 110 129 136 145 147 145 139 140 140 142 141 133
128 117 180 208 203 236 240 168 175 160 182 180 135 149 188 209 168 117 103 104 107 111 120 126 135 142 143 144 138 130 126 123 117 107 96 94 89 98 117 135 150 152 149 145 146 146 143 140 129
99 93 205 212 197 226 246 143 8 119 116 85 111 172 189 154 135 115 104 96 112 125 132 131 124 145 150 159 152 133 127 124 119 110 96 96 102 130 133 141 145 155 155 152 149 152 145 131 122
103 166 217 221 200 196 225 188 191 99 82 75 32 35 121 136 141 143 150 158 161 169 167 159 148 157 162 163 137 143 142 137 129 126 123 112 104 123 124 143 154 156 155 155 152 151 145 125 118
157 192 210 251 236 189 202 249 212 150 215 209 190 175 150 150 155 162 173 179 181 182 179 171 160 167 181 159 151 151 140 145 146 140 138 125 108 91 91 122 150 159 147 152 153 141 136 137 131
180 223 207 236 237 201 201 205 234 205 221 209 187 170 162 168 175 178 182 189 181 181 192 185 165 170 188 165 164 161 156 157 164 166 155 144 137 132 149 155 159 150 149 151 148 143 141 138 134
224 246 241 241 247 229 218 223 229 244 240 213 175 170 178 183 190 194 189 186 180 187 197 190 180 191 182 163 171 163 168 173 181 172 171 161 155 164 168 171 163 165 155 156 156 150 144 146 143
216 228 258 258 250 243 229 251 227 249 228 198 182 191 196 194 194 189 187 191 192 194 200 195 194 199 176 166 171 177 174 176 173 176 179 167 161 165 169 174 171 173 169 166 163 164 155 159 153
240 284 290 251 226 232 212 269 234 238 194 204 207 203 205 205 197 196 195 193 194 195 194 199 199 186 175 171 174 173 176 171 174 186 183 173 167 169 168 176 180 184 170 155 145 145 140 142 139
355 255 266 261 207 199 171 257 257 226 194 220 224 216 210 212 204 200 195 191 190 184 190 203 194 178 177 172 173 173 172 172 177 186 185 184 176 170 166 174 186 181 160 150 152 152 150 149 144
285 244 249 274 217 186 194 247 264 222 200 225 229 223 215 213 212 206 194 188 185 185 189 192 175 171 171 168 165 166 167 171 175 180 185 190 185 178 168 176 183 168 156 155 161 156 157 153 139
227 237 253 249 246 208 230 250 265 248 219 228 229 221 212 209 214 203 190 185 180 183 184 179 168 168 160 146 129 136 142 172 182 187 196 191 187 180 171 173 174 164 155 153 146 145 143 141 135
223 236 255 259 251 235 246 258 262 251 236 238 236 225 217 217 212 190 180 174 167 172 173 172 167 171 156 151 159 164 185 190 203 209 205 195 187 182 175 173 173 172 168 162 149 138 138 123 121
247 253 265 286 274 247 265 270 264 245 229 225 224 223 217 211 199 190 175 162 166 172 175 171 172 174 176 176 179 177 171 193 209 205 220 201 186 186 180 172 177 175 166 157 153 146 139 143 142
249 236 245 264 305 298 297 293 270 258 236 232 226 213 204 194 195 192 178 177 170 172 176 175 179 179 179 166 137 102 78 64 57 228 232 221 194 191 185 179 177 179 173 174 172 170 160 167 182
253 243 239 244 266 274 216 283 281 255 262 248 241 214 202 197 187 179 178 178 179 182 174 166 169 171 170 154 153 162 176 197 218 213 216 232 199 187 189 181 180 177 176 177 179 181 174 167 174
248 267 251 241 227 264 246 237 280 292 259 254 244 223 210 193 178 174 178 179 174 162 155 158 150 150 151 155 164 172 189 206 212 205 202 212 213 189 184 179 179 179 182 184 182 179 180 179 178
280 326 298 322 150 247 224 199 274 248 237 253 244 230 213 187 172 166 161 148 136 131 135 140 144 153 157 161 167 177 186 189 193 205 203 205 208 201 192 184 183 185 183 189 191 186 184 186 181
18 71 348 294 237 247 212 194 251 266 250 206 198 210 213 177 168 161 154 150 147 144 145 147 151 163 171 173 180 187 191 192 199 199 202 199 205 218 208 197 195 192 191 192 189 187 189 190 187
253 185 194 220 225 264 230 216 253 301 322 46 113 114 105 138 164 174 171 166 164 164 162 157 161 171 174 176 190 195 192 193 204 205 201 202 206 213 205 200 200 195 190 188 184 192 197 193 195
257 238 221 203 245 250 245 266 312 1 15 21 42 56 52 106 151 175 165 161 162 166 175 173 166 168 182 189 191 199 194 191 201 214 209 205 206 212 202 202 200 196 189 185 180 193 203 197 202
243 238 106 201 220 239 246 241 257 322 344 2 360 347 329 356 41 77 149 155 169 176 175 162 165 183 189 188 196 203 203 203 204 203 214 215 209 205 198 209 206 203 197 192 188 194 202 205 209
347 336 278 239 229 215 237 258 266 305 351 346 314 321 308 306 247 268 299 142 112 92 119 139 156 172 199 215 215 207 213 207 203 211 223 217 207 199 212 216 208 204 204 197 194 201 196 205 211
211 211 158 226 261 237 237 264 356 16 0 352 331 330 329 323 345 347 5 58 69 81 110 152 189 199 225 229 230 230 228 207 207 223 231 215 202 203 214 213 212 211 209 201 203 207 204 204 208